Location: Csohesd
(46.2500°N, 22.6167°E)
Time: 13:30:18
(UTC+00:00)

Cosmos 371 Rocket - Pass Details

Date: 21 October 2021
Orbit: 684 x 699 km, 74.0° (Epoch: 07 December)

Event Time Altitude Azimuth Distance (km) Brightness Sun altitude
Rises 17:45:56 0° 220° (SW) 3,057 7.0 -23.7°
Reaches altitude 10° 17:48:21 10° 227° (SW) 2,147 6.3 -24.1°
Maximum altitude 17:52:56 42° 298° (WNW) 999 4.5 -24.9°
Drops below altitude 10° 17:57:34 10° 10° (N) 2,169 5.8 -25.7°
Enters shadow 17:59:50 - 17° (NNE) 3,019 6.5 -26.1°
